Powrót do katalogu

THOR ABLESTAR DEB

AktywnyLEO
NORAD 48817·DEBRIS·🇺🇸 United States

Wystrzelony Jun 29, 1961 z Cape Canaveral Space Force Station

Loading…

Następne Przeloty (najbliższe 24 godziny)

TLE

ŚwieżeSource: Space-Track

Epoka: Sep 14, 2026, 03:14 UTC

1 48817U 61015MV  26257.13528810  .00000092  00000-0  12033-3 0  9994
2 48817  65.8409 139.7702 0206605 173.5837 186.7957 13.89989966649622

Śledź THOR ABLESTAR DEB w czasie rzeczywistym z AllMySat

Download on the App Store